Lid_Strength_Index
6 9 11 9 8 9 9 10 11 10 8 10 11 11 9 8 8 7 7 7 7 6 4 3 3 2 2 2 2 2 2 1 2 2 2 2 2 1 1 1 0 0 -0 -0
8 11 8 7 7 8 9 11 11 10 8 10 11 11 9 9 8 8 8 7 6 6 5 4 3 3 2 2 2 2 2 1 1 1 1 1 1 1 1 1 0 0 0 -0
10 8 6 7 8 9 10 11 11 11 9 10 11 12 11 8 8 6 7 6 6 6 6 5 4 3 3 3 2 2 1 1 1 1 1 1 1 1 1 1 1 1 1 1
8 7 8 9 10 9 12 9 10 10 12 15 11 16 12 10 9 8 7 7 6 6 5 4 4 4 3 3 2 1 1 2 1 1 1 2 2 3 2 2 1 2 2 2
9 8 9 9 9 8 11 8 10 10 12 13 13 15 13 10 11 9 8 7 6 6 5 5 4 3 3 2 2 2 1 1 1 1 1 2 3 2 2 2 2 2 3 3
8 6 7 8 7 8 8 10 10 11 12 17 13 14 14 11 10 9 8 7 6 6 5 4 3 3 3 2 2 2 2 2 2 1 1 2 3 3 3 3 2 3 4 5
9 8 7 7 10 9 9 12 18 18 19 18 12 14 13 10 8 8 8 7 6 6 5 5 4 4 3 3 3 2 2 3 3 2 1 2 2 3 2 3 3 4 5 5
13 14 9 8 9 11 11 12 18 22 21 20 11 17 13 8 7 7 6 6 6 6 5 5 4 4 3 3 2 3 2 3 3 4 2 2 1 2 2 3 3 4 4 5
12 12 7 7 8 9 11 13 10 14 14 17 16 12 10 8 8 8 8 7 7 6 5 5 4 4 3 3 3 3 3 3 3 3 3 3 2 2 3 4 4 4 4 5
9 13 9 9 8 8 10 9 14 14 20 21 15 15 14 11 10 9 8 8 7 6 5 5 4 4 3 3 2 3 3 3 3 3 3 4 4 4 4 4 5 6 6 5
8 10 11 10 12 11 11 12 12 12 14 17 18 16 11 10 9 9 8 7 7 6 5 5 4 3 3 3 3 3 3 3 3 3 4 4 5 4 5 5 5 6 6 6
7 10 13 13 9 9 10 11 11 15 16 14 15 16 11 9 8 8 8 7 6 6 5 5 4 4 4 4 3 4 4 4 3 3 4 4 4 4 5 5 5 6 6 6
8 11 15 13 12 11 12 10 10 11 12 15 17 15 10 10 10 8 7 7 6 6 5 5 5 4 4 4 4 4 4 4 3 4 4 4 4 4 5 5 5 5 5 6
7 10 12 15 13 12 13 11 11 12 14 14 14 14 12 11 11 9 7 7 6 6 6 5 5 5 4 4 3 4 4 4 4 4 5 6 5 5 5 5 4 5 5 6
9 12 11 10 10 10 11 11 11 12 12 14 12 12 11 10 10 8 7 6 6 6 6 6 5 5 5 4 4 5 4 4 5 5 5 6 6 6 6 7 7 7 7 8
9 12 11 12 10 10 11 11 11 11 11 11 12 12 10 9 9 8 7 7 7 6 6 5 5 5 5 5 5 5 5 5 4 6 6 6 7 7 8 8 8 8 8 8
11 12 13 15 11 11 13 12 11 11 10 11 13 10 10 9 8 8 7 6 6 6 6 5 5 5 5 5 5 5 5 5 5 6 6 6 6 6 7 7 7 7 8 9
12 13 13 15 12 18 11 9 10 10 10 10 10 9 8 9 7 7 6 6 6 5 5 5 5 5 5 5 5 4 4 5 5 5 5 4 5 6 6 7 8 8 9 9
9 12 15 17 16 13 11 10 10 11 11 9 9 9 9 8 9 8 6 5 5 5 4 4 4 4 4 5 5 5 4 5 5 6 6 7 7 7 8 8 9 9 10 10
9 10 14 16 18 20 12 9 8 8 13 9 8 9 9 9 12 10 6 5 5 4 4 4 3 4 4 4 4 5 6 6 7 7 7 7 7 8 9 10 10 10 11 11
14 14 16 16 17 14 9 8 7 14 13 8 8 8 8 10 9 8 5 5 4 4 4 3 3 5 5 4 5 6 7 8 7 7 8 9 9 9 10 10 11 11 11 11
14 15 16 15 17 18 8 9 11 9 8 8 8 7 7 7 7 7 5 5 4 4 4 3 4 5 5 5 6 7 8 8 8 8 9 10 10 9 10 11 12 12 12 13
14 12 13 12 13 8 7 8 7 8 8 8 8 7 6 7 7 7 6 5 4 4 4 3 4 6 5 5 6 8 8 8 9 10 11 11 11 11 11 12 12 13 13 13
8 7 11 11 9 8 7 7 8 8 8 7 8 7 6 7 7 7 6 5 4 4 4 3 4 5 6 5 6 7 7 8 9 10 11 11 11 12 12 11 12 12 13 13
9 8 10 10 8 7 7 7 7 8 8 8 7 7 7 7 7 6 5 5 4 4 3 3 4 5 5 5 5 6 7 8 9 10 10 11 11 12 12 12 12 12 12 12
8 10 11 11 7 7 8 6 7 8 8 8 8 7 6 6 6 6 5 4 4 4 3 3 3 4 5 5 5 6 7 8 9 10 10 11 11 12 12 12 13 8 8 7